星链-36523(STARLINK-36523)

导读 | 豆包AI

STARLINK-36523是美国于2026年1月14日发射的Starlink星链卫星,星链是美国太空探索技术公司(SpaceX)打造的低轨卫星互联网星座项目,该卫星将为全球偏远地区、海洋、航空等场景提供高速低延迟的宽带互联网接入服务,进一步拓展星链星座的覆盖范围与服务能力,推动全球卫星互联网基础设施的完善。

基本信息
目录编号:
67460
目录名称:
STARLINK-36523
国际标识:
2026-008R
轨道中心:
EARTH
卫星名称:
星链-36523
卫星全名:
星链-36523(STARLINK-36523)
卫星状态:
在轨 (已飞行131 天)
发射日期:
2026-01-14 UTC
国别 :
美国 (US)
星等 :
--
轨道信息
数据来源 国际轨道数据
星历时间: 2026-05-25T08:39:11+0800
8小时前
查看轨道信息
半长轴: 6861.107km
偏心率: 0.0002307
轨道倾角: 43.004°
近地点辐角 285.481°
升交点赤经 134.408°
平近点角 74.578°
近地点: 481.387km
远地点: 484.553km
周期: 94.265分钟
每日圈数: 15.276067
详细信息
固有亮度:
5
最大亮度:
2.5
卫星平台:
Starlink V1.0
覆盖范围:
全球
运营商:
太空探索技术公司
运营商所在国:
美国
制造商(研发单位):
太空探索技术公司
制造商所在国:
美国
使用方式:
暂无
卫星简介
Starlink 计划是 SpaceX 推出的全球卫星互联网项目,通过发射低轨道卫星,为全球尤其是偏远地区提供高速、低延迟的互联网服务。自 2019 年起,Starlink 已部署数千颗卫星,旨在缩小全球数字鸿沟,推动互联网普及。该项目还为军事、航空等行业提供通信支持,带来广泛经济效益。
2D轨道图
3D轨道图
轨道高度分析图
轨道倾角分析图
轨道综合分析图
查看轨道综合分析图